Other Public Products
Issued by NWS Grand Forks, ND

Home | Current Version | Previous Version | Graphics & Text | Print | Product List | Glossary On
Versions: 1 2 3 4 5 6 7 8 9 10 11 12 13 14 15 16 17 18 19 20 21 22 23 24 25 26 27 28 29 30 31 32 33 34 35 36 37 38 39 40 41 42 43 44 45 46 47 48 49 50
000
FPUS83 KFGF 231631
OPUFGF
PRAIRIE TO PINES WEATHER ROUNDUP
NATIONAL WEATHER SERVICE EASTERN NORTH DAKOTA/GRAND FORKS ND
1000 AM CST MON JAN 23 2017

 **SATELLITE DATA USED TO AUGMENT SKY COVER AT AUTOMATED STATIONS**
 *****  WEATHER ACROSS EASTERN NORTH DAKOTA  *****

CITY           SKY/WX    TMP DP  RH WIND       PRES   REMARKS
GRAND FORKS    CLOUDY    31  24  75 W10       29.80R WCI  22
GRAND FORKS AF CLOUDY    32  23  69 W9        29.80R WCI  24
GRAND CITY NWS NOT AVBL
BUXTON           N/A     31  31  96 W10         N/A  WCI  23
DEVILS LAKE    CLOUDY    26  22  84 W10       29.78S WCI  16
FARGO          CLOUDY    35  29  78 W10       29.82R
WAHPETON ARPT  CLOUDY    32  27  80 W8        29.84S WCI  25
$$

 *****  WEATHER ACROSS CENTRAL AND WESTERN NORTH DAKOTA  *****

CITY           SKY/WX    TMP DP  RH WIND       PRES   REMARKS
JAMESTOWN      CLOUDY    29  23  78 W7        29.79F WCI  22
BISMARCK       CLOUDY    30  23  75 CALM      29.80S
MINOT          CLOUDY    26  22  84 W6        29.76S WCI  19
MINOT AFB      CLOUDY    24  19  82 NW15      29.75S WCI  12
GARRISON         N/A     28  23  81 W6        29.76S WCI  22
WILLISTON      CLOUDY    24  21  88 N6        29.80R WCI  17
DICKINSON      CLOUDY    23  19  85 S7        29.72R WCI  15
HETTINGER      FOG       22  21  96 SE8       29.72F VSB 1/4 WCI  12
$$

 *****  OTHER OBSERVATIONS NORTHEAST NORTH DAKOTA  *****

CITY           SKY/WX    TMP DP  RH WIND       PRES   REMARKS
WALHALLA       NOT AVBL
LANGDON        NOT AVBL
CAVALIER       CLOUDY    30  25  80 W9        29.76S WCI  22
GRAFTON        PTSUNNY   28  25  86 W13       29.80R WCI  18
CANDO          NOT AVBL
FORT TOTTEN      N/A     27  24  88 W7        29.95S WCI  19
ROLLA            N/A    N/A N/A N/A MISG        N/A
RUGBY            N/A     25  23  93 W15       29.76S WCI  12
 ***** THE ABOVE OBSERVATIONS ARE NON NWS ARE NOT QUALITY
        CONTROLLED AND MAY MIS-REPORT RAIN FOR SNOW...
$$

 *****  OTHER OBSERVATIONS SOUTHEAST NORTH DAKOTA *****

CITY           SKY/WX    TMP DP  RH WIND       PRES   REMARKS
COOPERSTOWN    CLOUDY    28  25  86 W12       29.80S WCI  18
VALLEY CITY    CLOUDY    30  30 100 W8        29.82F WCI  23
OAKES          NOT AVBL
GWINNER        CLOUDY    32  28  86 W7        29.84S
SHEYENNE NWR     N/A     32  25  76 W6        29.95S
BUFFALO          N/A     31  25  80 SW9         N/A  WCI  23
WYNDMERE         N/A     34  27  75 W5          N/A
 ***** THE ABOVE OBSERVATIONS ARE NON NWS ARE NOT QUALITY
       CONTROLLED AND MAY MIS-REPORT RAIN FOR SNOW...
$$

  *****  WEATHER ACROSS NORTHERN MINNESOTA  *****

CITY           SKY/WX    TMP DP  RH WIND       PRES   REMARKS
FLAG ISLAND    CLOUDY    30  30 100 SW3       29.72S FOG
WARROAD        CLOUDY    32  28  86 SW6       29.73F
ROSEAU         PTSUNNY   32  27  80 SW5       29.74R
HALLOCK        CLOUDY    32  28  86 SW8       29.76R WCI  25
THF RVR FALLS  CLOUDY    30  28  92 SW10      29.78R WCI  21
HALSTAD          N/A     32  28  86 W9          N/A  WCI  24
FOSSTON        CLOUDY    28  27  93 SW8       29.79R WCI  20
BAUDETTE       CLOUDY    32  31  96 SW3       29.73S FOG
WASKISH        CLOUDY    32  30  93 SW3       29.75S
CROOKSTON      CLOUDY    30  27  86 W13       29.81R WCI  20
$$
  *****  WEATHER ACROSS CENTRAL AND WEST MINNESOTA  *****

CITY           SKY/WX    TMP DP  RH WIND       PRES   REMARKS
BEMIDJI        CLOUDY    31  26  80 W8        29.77R WCI  23
PARK RAPIDS    CLOUDY    32  23  69 NW7       29.77R
WADENA         CLOUDY    30  25  80 W7        29.81  WCI  23
DETROIT LAKES  CLOUDY    32  28  86 W7        29.81R
MOORHEAD       CLOUDY    32  28  86 W8        29.84R WCI  25
FERGUS FALLS   CLOUDY    32  27  80 W7        29.87R
ELBOW LAKE     CLOUDY    31  28  86 NW7       29.84R FOG     WCI  25
MORRIS MN      CLOUDY    34  28  80 W8        29.83S
STAPLES        CLOUDY    30  28  93 NW7       29.80R WCI  23
WHEATON        CLOUDY    36  32  87 W8        29.86S
$$
  *****  WEATHER ELSEWHERE ACROSS MINNESOTA  *****

CITY           SKY/WX    TMP DP  RH WIND       PRES   REMARKS
DULUTH         CLOUDY    35  32  88 NW7       29.76R
INTRNTL FALLS  CLOUDY    32  30  92 W6        29.74S FOG
ELY            CLOUDY    34  34 100 CALM      29.75R FOG
CLOQUET        CLOUDY    34  34 100 NW3       29.77R
BRAINERD       CLOUDY    31  30  96 W3        29.78R FOG
HIBBING        CLOUDY    33  33 100 NW5       29.76R
ALEXANDRIA     CLOUDY    31  26  82 NW10      29.82R WCI  22
SAINT CLOUD    CLOUDY    32  31  96 NW5       29.80R FOG
MINNEAPOLIS    CLOUDY    35  31  85 CALM      29.81S
$$

  *****  WEATHER ACROSS SOUTH DAKOTA  *****

CITY           SKY/WX    TMP DP  RH WIND       PRES   REMARKS
SIOUX FALLS    CLOUDY    30  27  88 W7        29.87S WCI  23
BROOKINGS      CLOUDY    29  26  89 NW7       29.83F WCI  22
WATERTOWN      CLOUDY    28  26  92 W8        29.83R WCI  20
HURON          CLOUDY    30  26  85 CALM      29.87S
SISSETON         N/A     32  27  81 NW9       29.84R WCI  24
ABERDEEN       CLOUDY    30  24  78 W3        29.85F
MITCHELL       CLOUDY    31  26  82 E6        29.87F
PIERRE         CLOUDY    26  23  88 SE10      29.80R WCI  16
MOBRIDGE       CLOUDY    28  23  81 E7        29.78F WCI  21
RAPID CITY     PTSUNNY   20  19  96 CALM      29.66S
$$

  *****  SOME WEATHER IN NEARBY STATES *****

CITY           SKY/WX    TMP DP  RH WIND       PRES   REMARKS
GLASGOW MT     LGT SNOW  26  24  92 W8        29.76R FOG     WCI  18
GREAT FALLS MT CLOUDY    22  19  89 N8        29.74R WCI  12
CHEYENNE WY    FAIR      37  21  52 SW15      29.60S
SCOTTSBLUFF NE FAIR      29  24  82 SW3       29.65R
OMAHA NE       CLOUDY    33  27  78 N3        29.90S
DES MOINES IA  DRIZZLE   33  29  85 N8        29.90R
DAVENPORT IA   CLOUDY    37  34  89 NW12      29.83R
CHICAGO IL     CLOUDY    38  35  89 N9G20     29.77S
EAU CLAIRE WI  FOG       33  33 100 W7        29.81S VSB 3/4
LA CROSSE WI   CLOUDY    39  35  86 CALM      29.83F FOG
$$

  *****  SOME NATIONAL WEATHER *****

CITY           SKY/WX    TMP DP  RH WIND       PRES   REMARKS
LA GUARDIA NY  CLOUDY    42  30  62 E24G38    29.86R
RALEIGH NC     PTSUNNY   56  49  77 SW15      29.30R
ATLANTA GA     DRIZZLE   55  52  89 NW20      29.39R
NEW ORLEANS LA FAIR      57  44  62 NW14G22   29.86R
OKLAHOMA CITY  FAIR      43  34  70 S9        29.93R
ALBUQUERQUE NM FAIR      37  29  72 S6        29.97S
SALT LAKE CITY PTSUNNY   40  31  70 SE13G24   29.48F
LOS ANGELES CA LGT RAIN  50  43  77 SW15      29.89R
BOISE ID       LGT SNOW  27  26  96 NW6       29.61R FOG     WCI  20
SEATTLE WA     FAIR      37  32  82 NE6       29.75R
$$

*** WEATHER ACROSS MANITOBA...SASKATCHEWAN AND ONTARIO ***
                ***ONTARIO***

CITY           SKY/WX    TMP DP  RH WIND       PRES   REMARKS
GERALDTON      FOG       32  32 100 E3        29.74S VSB 1/8
THUNDER BAY    PTSUNNY   34  34 100 W3        29.76S
SIOUX LOOKOUT  FLURRIES  32  30  93 VRB2      29.73R
TORONTO        CLOUDY    36  36 100 E13       29.80F
BIG TROUT LK   LGT SNOW  23  21  93 E3        29.81  VSB 1
PICKLE LAKE    LGT SNOW  27  25  93 E5        29.74S WCI  21
DRYDEN         FOG       32  32 100 S5        29.71S VSB 1/4
KENORA         FRZ DRZL  32  32 100 SW5       29.71S FOG
$$
                *** MANITOBA***

CITY           SKY/WX    TMP DP  RH WIND       PRES   REMARKS
BRANDON        FLURRIES  23  19  86 W14       29.70S WCI  11
DAUPHIN        CLOUDY    28  23  80 W15       29.67S WCI  17
ISLAND LAKE    LGT SNOW  28  28 100 VRB3      29.75S FOG
PILOT MOUND      N/A     25  21  86 W14         N/A  WCI  13
THE PAS        LGT SNOW  23  19  86 N7        29.78R WCI  15
THOMPSON       FLURRIES  14  10  85 N8        29.87S WCI   3
WINNIPEG       PTSUNNY   30  27  86 SW10      29.72S WCI  21
LYNN LAKE      LGT SNOW   5   3  92 NE12      29.92S WCI -11
CHURCHILL      FRZ DRZL  19  19 100 E18G24    30.03S FOG     WCI   4
GILLAM         LGT SNOW  23  21  93 NE10      29.86F WCI  12
$$
                ***SASKATCHEWAN***

CITY           SKY/WX    TMP DP  RH WIND       PRES   REMARKS
ESTEVAN        FRZ DRZL  21  18  86 W12       29.77R WCI   9
KINDERSLEY     FLURRIES  10   7  85 NW8       29.82R WCI  -1
LLOYDMINSTER   LGT SNOW   9   7  92 N5        29.86R VSB 1   WCI   0
PRINCE ALBERT  FLURRIES  16  10  79 N7        29.81S WCI   6
REGINA         CLOUDY    18  14  86 NW16      29.77R WCI   3
YORKTON        FLURRIES  21  19  93 W9        29.69R WC1F1C2F2C3F3C4F4C5F5C6F6C7F7C8F8C9F9CaFaCbFbCcFcCdFdCe!



USA.gov is the U.S. government's official web portal to all federal, state and local government web resources and services.